Weather History for KFWN - June, 2012

Change the Weather History Date:

Sunday, June 17, 2012

  Actual Average Record
Temperature  
Mean Temperature 65 °F -  
Max Temperature 73 °F 80 °F 95 °F (1957)
Min Temperature 55 °F 55 °F 41 °F (1980)
Growing Degree Days 15 (Base 50)    
Moisture  
Dew Point 56 °F    
Average Humidity 76    
Maximum Humidity 93    
Minimum Humidity 57    
Precipitation  
Precipitation 0.00 in - - ()
Sea Level Pressure  
Sea Level Pressure 30.17 in    
Wind  
Wind Speed 1 mph (SSW)    
Max Wind Speed 6 mph    
Max Gust Speed -    
Visibility 10 miles    
Events      
Averages and records for this station are not official NWS values.
T = Trace of Precipitation, MM = Missing Value Source: NWS Daily Summary

Daily Weather History Graph

Daily Weather History Graph

Search for Another Location

Airport or City:

Trip Planner

Search our weather history database for the weather conditions in past years. The results will help you decide how hot, cold, wet, or windy it might be!

Date:

Astronomy

Jun. 17, 2012 Rise Set
Actual Time 5:25 AM EDT 8:33 PM EDT
Civil Twilight 4:51 AM EDT 9:07 PM EDT
Nautical Twilight 4:08 AM EDT 9:51 PM EDT
Astronomical Twilight 3:16 AM EDT 10:42 PM EDT
Moon 3:53 AM EDT (6/17) 6:59 PM EDT (6/17)
Length of Visible Light 16h 16m
Length of Day
15h 08m
Waning Crescent, 4% of the Moon is Illuminated
Jun 17
Waning Crescent
Jun 19
New
Jun 26
First Quarter
Jul 3
Full
Jul 10
Last Quarter

Hourly Weather History & Observations

Time (EDT) Temp. Dew Point Humidity Pressure Visibility Wind Dir Wind Speed Gust Speed Precip Events Conditions
12:53 AM 57.0 °F 54.0 °F 89% 30.23 in 10.0 mi Calm Calm - N/A   Clear
1:24 AM 57.2 °F 53.6 °F 88% 30.24 in 10.0 mi Calm Calm - N/A   Mostly Cloudy
1:53 AM 59.0 °F 55.9 °F 90% 30.23 in 10.0 mi Calm Calm - N/A   Overcast
2:53 AM 60.1 °F 57.0 °F 90% 30.22 in 10.0 mi Calm Calm - N/A   Overcast
3:53 AM 60.1 °F 57.0 °F 90% 30.22 in 10.0 mi Calm Calm - N/A   Overcast
4:53 AM 60.1 °F 57.0 °F 90% 30.22 in 10.0 mi Calm Calm - N/A   Overcast
5:53 AM 59.0 °F 57.0 °F 93% 30.22 in 9.0 mi Calm Calm - N/A   Overcast
6:53 AM 61.0 °F 57.0 °F 87% 30.22 in 10.0 mi Calm Calm - N/A   Mostly Cloudy
7:53 AM 62.1 °F 57.0 °F 84% 30.23 in 10.0 mi SSW 3.5 mph - N/A   Overcast
8:53 AM 64.9 °F 57.0 °F 75% 30.23 in 10.0 mi Variable 4.6 mph - N/A   Overcast
9:12 AM 64.4 °F 57.2 °F 77% 30.24 in 10.0 mi Variable 4.6 mph - N/A   Overcast
10:30 AM 66.2 °F 55.4 °F 68% 30.21 in 10.0 mi SW 3.5 mph - N/A   Overcast
10:53 AM 69.1 °F 55.9 °F 63% 30.20 in 10.0 mi Variable 3.5 mph - N/A   Overcast
11:53 AM 68.0 °F 57.0 °F 68% 30.19 in 10.0 mi Calm Calm - N/A   Overcast
12:53 PM 69.1 °F 57.9 °F 68% 30.18 in 10.0 mi South 3.5 mph - N/A   Overcast
1:53 PM 71.1 °F 57.9 °F 63% 30.15 in 10.0 mi Variable 3.5 mph - N/A   Clear
2:53 PM 73.0 °F 57.9 °F 59% 30.13 in 10.0 mi Variable 3.5 mph - N/A   Mostly Cloudy
3:53 PM 73.0 °F 57.0 °F 57% 30.11 in 10.0 mi SW 4.6 mph - N/A   Clear
4:53 PM 71.1 °F 57.0 °F 61% 30.09 in 10.0 mi South 3.5 mph - N/A   Partly Cloudy
5:53 PM 71.1 °F 55.9 °F 59% 30.07 in 10.0 mi South 3.5 mph - N/A   Scattered Clouds
6:53 PM 69.1 °F 55.0 °F 61% 30.06 in 10.0 mi SSE 4.6 mph - N/A   Clear
7:53 PM 66.9 °F 57.0 °F 70% 30.07 in 10.0 mi Calm Calm - N/A   Clear
8:53 PM 63.0 °F 55.0 °F 75% 30.09 in 10.0 mi Variable 3.5 mph - N/A   Clear
9:53 PM 61.0 °F 54.0 °F 78% 30.12 in 10.0 mi SSW 5.8 mph - N/A   Clear
10:53 PM 57.9 °F 54.0 °F 87% 30.13 in 10.0 mi Calm Calm - N/A   Clear
11:53 PM 55.0 °F 53.1 °F 93% 30.12 in 10.0 mi Calm Calm - N/A   Clear